Weather History for Big Rapids, MI

Change the Weather History Date:

Thursday, March 1, 2012

  Actual Average Record
Temperature  
Mean Temperature 35 °F -  
Max Temperature 38 °F 36 °F 55 °F (1992)
Min Temperature 32 °F 14 °F -11 °F (1980)
Degree Days  
Heating Degree Days 30    
Moisture  
Dew Point 33 °F    
Average Humidity 94    
Maximum Humidity 100    
Minimum Humidity 73    
Precipitation  
Precipitation 0.00 in - - ()
Sea Level Pressure  
Sea Level Pressure 29.67 in    
Wind  
Wind Speed 6 mph (West)    
Max Wind Speed 12 mph    
Max Gust Speed 16 mph    
Visibility 9 miles    
Events Snow    
Averages and records for this station are not official NWS values.
T = Trace of Precipitation, MM = Missing Value Source: NWS Daily Summary

Daily Weather History Graph

Daily Weather History Graph

Search for Another Location

Airport:

Trip Planner

Search our weather history database for the weather conditions in past years. The results will help you decide how hot, cold, wet, or windy it might be!

Date:

Astronomy

Mar. 01, 2012 Rise Set
Actual Time 7:17 AM EST 6:31 PM EST
Civil Twilight 6:48 AM EST 7:00 PM EST
Nautical Twilight 6:15 AM EST 7:33 PM EST
Astronomical Twilight 5:42 AM EST 8:06 PM EST
Moon 11:41 AM EST (3/1) 2:24 AM EST (3/1)
Length of Visible Light 12h 11m
Length of Day
11h 13m
First Quarter, 56% of the Moon is Illuminated
Mar 1
First Quarter
Mar 8
Full
Mar 14
Last Quarter
Mar 22
New
Mar 30
First Quarter

Hourly Weather History & Observations

Time (EST) Temp. Windchill Dew Point Humidity Pressure Visibility Wind Dir Wind Speed Gust Speed Precip Events Conditions
12:15 AM 32.9 °F 29.8 °F 32.9 °F 100% 29.48 in 5.0 mi WSW 3.5 mph - N/A Snow Light Snow
12:34 AM 32.9 °F 27.5 °F 32.9 °F 100% 29.48 in 10.0 mi WSW 5.8 mph - N/A   Overcast
12:54 AM 32.9 °F 27.5 °F 32.9 °F 100% 29.49 in 10.0 mi WSW 5.8 mph - N/A   Overcast
1:15 AM 32.9 °F 27.5 °F 32.4 °F 98% 29.49 in 10.0 mi West 5.8 mph - N/A   Overcast
1:34 AM 32.9 °F 28.5 °F 32.5 °F 99% 29.50 in 10.0 mi West 4.6 mph - N/A   Overcast
2:15 AM 32.7 °F 26.4 °F 32.7 °F 100% 29.51 in 10.0 mi West 6.9 mph - N/A   Overcast
2:34 AM 32.5 °F 26.2 °F 32.5 °F 100% 29.51 in 10.0 mi West 6.9 mph - N/A   Overcast
2:54 AM 32.9 °F 28.5 °F 32.9 °F 100% 29.51 in 10.0 mi West 4.6 mph - N/A   Overcast
3:14 AM 32.7 °F 26.4 °F 32.4 °F 99% 29.51 in 10.0 mi West 6.9 mph - N/A   Overcast
3:34 AM 32.9 °F 25.9 °F 32.7 °F 99% 29.52 in 10.0 mi WNW 8.1 mph - N/A   Overcast
4:14 AM 32.9 °F 26.7 °F 32.9 °F 100% 29.54 in 10.0 mi West 6.9 mph - N/A   Overcast
4:34 AM 32.9 °F 25.9 °F 32.9 °F 100% 29.54 in 10.0 mi WNW 8.1 mph - N/A   Overcast
4:54 AM 32.9 °F 27.5 °F 32.9 °F 100% 29.55 in 10.0 mi WNW 5.8 mph - N/A   Overcast
5:14 AM 33.1 °F 26.9 °F 33.1 °F 100% 29.56 in 10.0 mi WNW 6.9 mph - N/A   Overcast
5:34 AM 33.1 °F 27.7 °F 33.1 °F 100% 29.56 in 10.0 mi West 5.8 mph - N/A   Overcast
5:54 AM 32.9 °F 28.5 °F 32.9 °F 100% 29.58 in 7.0 mi WNW 4.6 mph - N/A   Overcast
6:14 AM 32.9 °F 26.7 °F 32.9 °F 100% 29.58 in 7.0 mi WNW 6.9 mph - N/A   Overcast
6:34 AM 32.5 °F 24.2 °F 32.5 °F 100% 29.58 in 7.0 mi WNW 10.4 mph - N/A   Overcast
6:54 AM 32.9 °F 27.5 °F 32.9 °F 100% 29.60 in 7.0 mi NW 5.8 mph - N/A   Overcast
7:14 AM 32.9 °F 28.5 °F 32.9 °F 100% 29.61 in 7.0 mi West 4.6 mph - N/A   Overcast
7:34 AM 32.9 °F 27.5 °F 32.9 °F 100% 29.62 in 7.0 mi West 5.8 mph - N/A   Overcast
7:55 AM 32.9 °F 25.9 °F 32.9 °F 100% 29.64 in 5.0 mi West 8.1 mph - N/A   Overcast
8:14 AM 33.1 °F 28.7 °F 33.1 °F 100% 29.65 in 5.0 mi West 4.6 mph - N/A   Overcast
8:34 AM 33.3 °F 27.9 °F 33.1 °F 99% 29.66 in 7.0 mi West 5.8 mph - N/A   Overcast
9:14 AM 33.8 °F 27.7 °F 33.3 °F 98% 29.67 in 7.0 mi WNW 6.9 mph - N/A   Overcast
9:34 AM 34.0 °F 28.0 °F 33.4 °F 98% 29.68 in 7.0 mi WNW 6.9 mph - N/A   Overcast
9:55 AM 34.2 °F 27.5 °F 33.8 °F 99% 29.68 in 7.0 mi WNW 8.1 mph - N/A   Overcast
10:14 AM 34.7 °F 29.6 °F 34.0 °F 97% 29.69 in 10.0 mi WNW 5.8 mph - N/A   Overcast
10:34 AM 34.9 °F 29.0 °F 33.3 °F 94% 29.70 in 10.0 mi WNW 6.9 mph - N/A   Overcast
10:55 AM 36.3 °F 30.1 °F 33.4 °F 89% 29.70 in 10.0 mi WNW 8.1 mph - N/A   Overcast
11:34 AM 36.5 °F 30.3 °F 31.1 °F 81% 29.71 in 10.0 mi WNW 8.1 mph - N/A   Overcast
12:14 PM 37.0 °F 31.6 °F 31.1 °F 79% 29.73 in 10.0 mi West 6.9 mph - N/A   Overcast
12:54 PM 37.8 °F 30.2 °F 31.8 °F 79% 29.75 in 10.0 mi West 11.5 mph 16.1 mph N/A   Overcast
1:14 PM 38.1 °F 31.2 °F 32.0 °F 79% 29.74 in 10.0 mi WNW 10.4 mph - N/A   Overcast
1:34 PM 38.1 °F 31.7 °F 31.5 °F 77% 29.75 in 10.0 mi West 9.2 mph - N/A   Overcast
1:54 PM 37.9 °F 32.7 °F 31.5 °F 77% 29.74 in 10.0 mi West 6.9 mph - N/A   Overcast
2:14 PM 38.3 °F 32.5 °F 30.4 °F 73% 29.74 in 10.0 mi West 8.1 mph - N/A   Overcast
2:34 PM 38.3 °F 31.9 °F 30.4 °F 73% 29.75 in 10.0 mi West 9.2 mph - N/A   Overcast
2:54 PM 37.4 °F 32.8 °F 31.5 °F 79% 29.74 in 10.0 mi West 5.8 mph - N/A   Overcast
3:14 PM 37.2 °F 32.6 °F 31.6 °F 80% 29.75 in 10.0 mi WSW 5.8 mph - N/A   Overcast
3:34 PM 37.2 °F 33.6 °F 30.9 °F 78% 29.75 in 10.0 mi SW 4.6 mph - N/A   Overcast
4:14 PM 37.4 °F 33.8 °F 30.9 °F 77% 29.76 in 10.0 mi WSW 4.6 mph - N/A   Overcast
4:34 PM 36.9 °F 30.7 °F 30.9 °F 79% 29.76 in 10.0 mi SW 8.1 mph - N/A   Overcast
4:54 PM 36.5 °F 29.7 °F 31.6 °F 83% 29.76 in 10.0 mi SW 9.2 mph - N/A   Overcast
5:14 PM 35.2 °F 28.8 °F 32.4 °F 89% 29.78 in 5.0 mi West 8.1 mph - N/A Snow Light Snow
5:54 PM 34.2 °F 29.0 °F 34.2 °F 100% 29.79 in 5.0 mi West 5.8 mph - N/A Snow Light Snow
6:34 PM 34.0 °F 28.8 °F 33.8 °F 99% 29.81 in 10.0 mi West 5.8 mph - N/A   Overcast
6:54 PM 34.0 °F - 33.8 °F 99% 29.80 in 10.0 mi Calm Calm - N/A   Overcast
7:14 PM 33.8 °F - 33.6 °F 99% 29.80 in 10.0 mi Calm Calm - N/A   Overcast
7:34 PM 33.3 °F - 33.3 °F 100% 29.80 in 5.0 mi Calm Calm - N/A Snow Light Snow
7:54 PM 32.9 °F - 32.9 °F 100% 29.80 in 7.0 mi Calm Calm - N/A   Overcast
8:14 PM 32.9 °F - 32.9 °F 100% 29.80 in 5.0 mi Calm Calm - N/A   Overcast
8:33 PM 32.5 °F - 32.5 °F 100% 29.80 in 5.0 mi Calm Calm - N/A   Overcast
8:54 PM 32.5 °F - 32.5 °F 100% 29.80 in 5.0 mi Calm Calm - N/A   Overcast
9:14 PM 32.9 °F - 32.9 °F 100% 29.80 in 7.0 mi Calm Calm - N/A   Overcast
9:34 PM 32.4 °F 29.1 °F 32.4 °F 100% 29.80 in 7.0 mi SSW 3.5 mph - N/A   Overcast
9:54 PM 33.3 °F 28.9 °F 32.9 °F 99% 29.81 in 10.0 mi SSW 4.6 mph - N/A   Overcast
10:13 PM 33.1 °F 30.0 °F 32.5 °F 98% 29.82 in 10.0 mi SW 3.5 mph - N/A   Overcast
10:34 PM 33.1 °F - 32.2 °F 96% 29.82 in 10.0 mi Calm Calm - N/A   Overcast
10:54 PM 33.3 °F - 32.0 °F 95% 29.82 in 10.0 mi Calm Calm - N/A   Overcast
11:14 PM 33.3 °F - 32.0 °F 95% 29.82 in 10.0 mi Calm Calm - N/A   Overcast
11:34 PM 33.1 °F 28.7 °F 32.0 °F 96% 29.82 in 10.0 mi South 4.6 mph - N/A   Overcast
11:54 PM 33.1 °F 30.0 °F 32.2 °F 96% 29.82 in 10.0 mi SSW 3.5 mph - N/A   Overcast